User: anonymous   Login
Location: Ab? ar R?sh Ba?r?
(24.1861°N, 32.8847°E)
Time: 17:42:01
(UTC+00:00)
Language:

Cosmos 304 Rocket - Orbit

View from above orbital plane
View from above orbital plane
View from above satellite
View from above satellite

Ground track
Ground track

The orbit data is extracted from the following two-line orbital elements,

1  4139U 69091B   22025.22991997  .00000141  00000-0  33285-4 0  9992
2  4139  74.0327 117.4727 0004744 150.3866 209.7571 14.63115234775290
Epoch (UTC): 25 January 2022 05:31:05
Eccentricity: 0.0004744
inclination: 74.0327°
perigee height: 680 km
apogee height: 686 km
right ascension of ascending node: 117.4727°
argument of perigee: 150.3866°
revolutions per day: 14.63115234
mean anomaly at epoch: 209.7571°
orbit number at epoch: 77529

The dashed part of the orbit path shows where the satellite is in the earth's shadow,  

DLR